Weather in Ezupol'

Ukraine / Ivano-Frankovsk District     49°02′30″N   24°46′48″E
temp.,
°C
wind,
m/s
gust,
m/s
humid.,
%
clouds,
%
prec.,
mm/h
press.,
hPa
HPBL,
m
16 may, sun
sun1600:00+10se22909 0.0 101019
03:00+8se229324 0.0 101014
06:00+8se229581 0.0 100919
09:00+13se4582100 0.0 1009369
12:00+18se4466100 0.0 1008642
15:00+19se776683 0.3 10071115
18:00+16s37775 0.5 1006380
21:00+14wnw248596 1.3 100759
17 may, mon
mon1700:00+12wnw229278 0.1 100822
03:00+11nnw009297 0.1 100810
06:00+9wnw11925 0.0 100910
09:00+14nw11800 0.0 1009400
12:00+18ese126418 0.0 10061104
15:00+20e225725 0.1 10041480
18:00+20ene336319 0.0 10021185
21:00+15ene117793 0.4 100211
18 may, tue
tue1800:00+13wsw2289100 0.4 100128
03:00+12nw4996100 2.9 1001362
06:00+10nw71396100 12.1 1002523
09:00+10wnw71395100 20.5 1004787
12:00+9wnw81395100 8.4 1006872
15:00+10wnw81495100 15.9 10071167
18:00+11wnw91591100 1.8 10081101
21:00+10wnw71489100 1.9 1010813
19 may, wed
wed1900:00+9wnw6138875 0.0 1010485
03:00+9w7158390 0.0 1010560
06:00+9wnw6148558 0.0 1011568
09:00+12wnw7127943 0.0 10111114
12:00+15wnw8116461 0.1 10111700
15:00+16nw686035 0.2 10111840
18:00+15nw556914 0.2 10111080
21:00+11nw228994 0.3 101212
20 may, thu
thu2000:00+8wnw1192100 0.0 101212
03:00+9n1193100 0.3 101120
06:00+9nne1192100 0.1 101026
09:00+9ne4897100 2.2 1010403
12:00+9nne3696100 7.6 1011343
15:00+9nnw3696100 17.3 1011377
18:00+8nw71395100 6.8 1011842
21:00+8nw81495100 12.3 1011850